Regional Weather Roundup
Issued by NWS

Home | Current Version | Previous Version | Text Only | Print | Product List | Glossary Off
Versions: 1 2 3 4 5 6 7 8 9 10 11 12 13 14 15 16 17 18 19 20 21 22 23 24 25 26 27

000
ASUS45 KBOU 260907
RWRCO

WEATHER ROUNDUP FOR COLORADO
NATIONAL WEATHER SERVICE DENVER/BOULDER CO
300 AM MDT TUE JUL 26 2016

NOTE: "FAIR" INDICATES FEW OR NO CLOUDS BELOW 12000 FEET WITH NO
SIGNIFICANT WEATHER AND/OR OBSTRUCTIONS TO VISIBILITY.

COZ001>005-013-030-031-261000-
...NORTHWEST COLORADO...

CITY           SKY/WX    TMP DP  RH WIND       PRES   REMARKS
CRAIG          FAIR      61  42  49 CALM      30.25R
HAYDEN         FAIR      66  36  32 S6        30.27R
MEEKER         FAIR      59  46  62 E3        30.27S
MOUNT WERNER   NOT AVBL
STEAMBOAT SPGS FAIR      65  38  37 CALM      30.29F
WALDEN         FAIR      55  32  41 E8        30.40S
$$

COZ006>008-011-261000-
...WEST CENTRAL VALLEYS...

CITY           SKY/WX    TMP DP  RH WIND       PRES   REMARKS
GRAND JUNCTION FAIR      78  42  27 E13       30.12R
MONTROSE       FAIR      71  43  36 SE7       30.24S
EAGLE          FAIR      64  37  36 CALM      30.33S
RIFLE          FAIR      70  46  42 CALM      30.20S
DELTA          MOCLDY    76  42  29 NE5       30.19S
NUCLA          NOT AVBL
$$

COZ017>023-064>068-261000-
...SOUTHWEST COLORADO...

CITY           SKY/WX    TMP DP  RH WIND       PRES   REMARKS
DURANGO        CLOUDY    64  48  56 N9        30.32S
CORTEZ         MOCLDY    67  47  48 NE7       30.25S
PAGOSA SPRINGS CLOUDY    61  47  61 CALM      30.40R
TELLURIDE      FAIR      60  41  50 CALM      30.51F
WOLF CREEK PAS MOCLDY    46  37  71 NE14      30.74F
$$

COZ009-010-012-014-032>034-037-058>063-261000-
...CENTRAL COLORADO...

CITY           SKY/WX    TMP DP  RH WIND       PRES   REMARKS
ASPEN          FAIR      55  40  56 SW7       30.40S
BUENA VISTA    FAIR      53  42  66 SW5       30.45S
COPPER MTN     FAIR      54  30  40 SW6       30.73S
BERTHOUD PASS  FAIR      46  32  57 N9        30.75S
COTTONWOOD PAS FAIR      59  37  44 SW5       30.58S
GUNNISON       FAIR      55  43  62 S5        30.44F
KREMMLING      FAIR      54  41  62 CALM      30.39R
LEADVILLE      FAIR      46  35  65 NE6       30.57S
MONARCH PASS   MOCLDY    50  32  50 MISG      30.83S
SALIDA         FAIR      62  49  64 W3        30.49S
SUNLIGHT       MOCLDY    61  32  33 W3        30.65S
WILKERSON PASS FAIR      50  37  62 SW8       30.69F
$$

COZ069>075-261000-
...SAN LUIS VALLEY/SANGRE DE CRISTO MOUNTAINS...

CITY           SKY/WX    TMP DP  RH WIND       PRES   REMARKS
ALAMOSA        CLOUDY    63  50  62 S13       30.38F
LA VETA PASS   FAIR      54  43  66 SW3       30.58S
SAGUACHE       FAIR      59  45  58 E6        30.43S
$$

COZ035-036-038>040-261000-
...NORTHERN COLORADO FRONT RANGE...

CITY           SKY/WX    TMP DP  RH WIND       PRES   REMARKS
DENVER INTL AP FAIR      69  46  43 S13       30.14S
DMNS CITY PARK   N/A     75  44  32 SW8       30.13S
AURORA         PTCLDY    72  46  39 S14       30.17S
FRONT RANGE AP NOT AVBL
ERIE MUNI ARPT FAIR      66  51  58 CALM      30.12R
BOULDER MUN AP FAIR      64  50  59 N3        30.14R
CENTENNIAL     FAIR      74  41  30 SW17G24   30.19S
BROOMFIELD     FAIR      72  37  28 NW9       30.16R
LONGMONT       FAIR      69  53  56 CALM      30.14R
$$

COZ041-046-047-076>085-087-088-261000-
...PIKES PEAK/PALMER DIVIDE AND SOUTHERN FOOTHILLS...

CITY           SKY/WX    TMP DP  RH WIND       PRES   REMARKS
COLO. SPRINGS  FAIR      67  48  50 SE12      30.24F
A. F. ACADEMY  FAIR      59  46  61 N9        30.26F
SCHRIEVER AFB  NOT AVBL
ELLICOTT       FAIR     N/A N/A N/A SW8       30.23F
FALCON         NOT AVBL
FORT CARSON    FAIR      66  49  53 S8        30.20F
LIMON          NOT AVBL
MONUMENT HILL  FAIR      61  43  51 S12       30.31F
TRINIDAD       NOT AVBL
$$

COZ042>045-048>051-090-091-261000-
...NORTHEAST COLORADO...

CITY           SKY/WX    TMP DP  RH WIND       PRES   REMARKS
GREELEY ARPT   FAIR      61  55  82 NW7       30.11F
AKRON          FAIR      62  56  80 S13       30.13F
BURLINGTON     FAIR      66  63  90 SE13      30.15F
WRAY           FAIR      66  64  94 SE8       30.12S
STERLING       FAIR      63  61  94 S5        30.08S
HOLYOKE          N/A     66  63  88 W7        30.11S
FORT MORGAN    FAIR      60  56  85 E6        30.12S
$$

COZ086-089-092>099-261000-
...SOUTHEAST COLORADO...

CITY           SKY/WX    TMP DP  RH WIND       PRES   REMARKS
PUEBLO         FAIR      65  59  81 NW9       30.14F
LA JUNTA       FAIR      65  57  75 W5        30.14F
LAMAR          MOCLDY    72  58  61 CALM      30.13R
SPRINGFIELD      N/A     67  63  87 S12       30.15S
$$




USA.gov is the U.S. government's official web portal to all federal, state and local government web resources and services.